SCP
0 0 0 0 0 0 0 0 0 0 -0 -0 -0 -0 -0 -0 -0 -0 -0 -0 -0 -0 -0 -0 -0 -0 0 0 0 0 0 0 -0 0 0 0 0 0 0 0 0 0 0 0 0 0 0
0 0 0 0 0 0 0 0 0 0 0 -0 -0 -0 -0 -0 -0 -0 -0 -0 -0 -0 -0 -0 0 0 0 0 -0 0 0 0 0 0 0 0 0 0 0 0 0 0 0 0 0 0 0
0 0 0 0 0 0 0 0 0 -0 -0 -0 -0 -0 -0 -0 -0 -0 -0 -0 -0 -0 -0 -0 -0 0 0 0 0 0 0 0 -0 0 0 -0 0 0 0 0 0 0 0 0 0 0 0
0 0 0 0 0 0 0 0 -0 -0 -0 -0 -0 -0 -0 -0 -0 -0 -0 -0 -0 -0 -0 0 0 0 0 0 -0 0 0 0 0 0 0 0 0 0 0 0 0 0 0 0 0 0 0
0 0 0 0 -0 -0 -0 -0 -0 -0 -0 -0 -0 -0 -0 -0 -0 -0 -0 -0 -0 -0 -0 -0 0 0 -0 0 0 0 -0 -0 0 0 0 0 0 0 0 0 0 0 0 0 -0 -0 0
0 0 0 0 -0 -0 -0 -0 -0 -0 -0 -0 -0 -0 -0 -0 -0 -0 -0 -0 -0 0 0 -0 0 -0 -0 -0 0 -0 0 -0 0 0 -0 0 0 0 0 0 0 0 0 0 0 0 0
0 0 -0 -0 -0 -0 -0 -0 -0 -0 -0 -0 -0 -0 -0 -0 -0 -0 -0 0 0 -0 -0 -0 0 -0 0 0 0 0 -0 0 0 0 0 0 0 0 -0 -0 -0 0 0 0 0 0 0
-0 -0 0 -0 -0 -0 -0 -0 -0 -0 -0 -0 -0 -0 -0 -0 -0 -0 0 0 0 0 0 -0 -0 -0 -0 0 0 0 0 0 0 0 0 0 0 0 0 0 0 0 0 0 0 0 0
0 0 0 0 -0 -0 -0 -0 -0 -0 -0 -0 -0 -0 -0 0 -0 -0 0 0 0 0 0 -0 0 0 0 0 0 -0 0 0 0 0 0 0 -0 -0 0 0 0 0 0 0 0 0 0
0 0 0 0 0 -0 -0 -0 -0 -0 -0 -0 -0 -0 0 -0 0 0 0 0 -0 0 0 0 0 0 0 0 0 0 -0 0 0 0 0 -0 0 0 0 0 0 0 -0 0 0 0 0
0 0 0 0 0 0 -0 -0 -0 -0 -0 -0 -0 -0 -0 -0 -0 0 0 0 0 0 0 0 0 0 0 0 0 0 0 0 0 -0 -0 -0 0 0 0 0 -0 0 0 0 0 0 0
0 0 0 0 0 0 0 -0 -0 -0 -0 -0 -0 -0 -0 0 0 0 0 -0 0 0 0 0 0 0 0 0 0 0 0 0 0 0 -0 -0 -0 -0 -0 0 0 0 0 0 0 0 0
0 -0 0 0 0 0 0 0 -0 -0 -0 -0 -0 -0 -0 -0 0 0 0 0 0 0 0 0 0 0 0 0 0 0 0 0 0 0 0 0 0 0 0 0 0 0 0 0 0 0 0
0 0 -0 0 0 0 0 0 0 -0 -0 -0 -0 -0 0 0 -0 -0 0 0 0 -0 -0 0 0 0 0 0 -0 0 0 0 0 0 0 0 0 0 -0 0 0 -0 0 0 0 0 0
0 0 0 0 0 0 0 0 0 0 -0 -0 -0 0 0 0 0 0 0 0 0 -0 0 0 0 0 0 0 0 0 0 0 0 0 0 0 -0 -0 -0 0 0 0 0 0 0 0 0
0 0 0 0 0 0 0 0 0 0 -0 -0 0 0 0 0 0 0 0 0 -0 -0 0 0 0 0 0 0 0 0 0 0 0 0 0 0 0 0 0 0 0 0 0 0 0 0 0
0 0 0 0 0 0 0 0 0 0 -0 -0 0 0 0 0 0 0 0 0 -0 0 0 0 0 0 0 0 0 0 0 0 0 0 0 0 0 0 0 0 0 0 0 0 0 0 0
0 0 0 0 0 0 0 0 0 0 -0 -0 0 0 0 0 0 0 0 -0 0 0 0 0 0 0 0 0 0 0 0 0 0 -0 0 0 0 0 0 0 -0 0 0 0 0 0 0
0 0 0 0 0 0 0 0 0 0 -0 -0 0 0 0 0 0 0 0 0 0 0 0 0 0 0 0 0 0 0 0 0 0 0 0 0 0 0 0 0 0 0 0 0 0 0 -0
0 0 0 0 0 0 0 0 0 0 0 -0 0 0 0 0 0 0 0 0 0 0 0 0 0 0 0 0 0 0 0 0 0 -0 0 0 0 0 0 0 0 0 0 0 0 0 0
0 0 0 0 0 0 0 0 0 0 0 0 0 0 0 0 0 0 0 0 0 0 0 0 0 0 0 0 0 0 0 0 0 -0 0 0 0 0 0 0 -0 -0 -0 0 0 0 0
0 0 0 0 0 0 0 0 0 0 0 0 0 0 0 0 0 0 0 0 0 0 0 0 0 0 0 0 0 0 0 0 0 0 0 0 0 0 0 0 0 0 0 -0 -0 0 0
0 0 0 0 0 0 0 0 0 0 0 0 0 0 0 0 0 0 0 0 0 0 0 0 0 0 0 0 0 0 0 0 0 0 0 0 0 -0 0 0 0 -0 -0 -0 0 0 -0
0 0 0 0 0 0 0 0 0 0 0 0 0 0 0 0 0 0 0 0 0 0 0 0 0 0 0 0 0 0 0 0 0 0 0 0 0 0 0 0 -0 0 -0 -0 -0 0 0
0 0 0 0 0 0 0 0 0 0 0 0 0 0 0 0 0 0 0 0 0 0 0 0 0 0 0 0 0 0 0 0 0 0 0 0 0 0 0 0 -0 -0 0 0 0 -0 0
0 0 0 0 0 0 0 0 0 0 0 0 0 0 0 0 0 0 0 0 0 0 0 0 0 0 0 0 0 0 0 0 0 0 0 0 0 0 0 0 0 0 0 0 0 -0 0
0 0 0 0 0 0 0 0 0 0 0 0 0 0 0 0 0 0 0 0 0 0 0 0 0 0 0 0 0 0 0 -0 0 0 0 0 0 0 0 0 0 0 0 0 0 0 0
0 0 0 0 0 0 0 0 0 0 0 0 0 0 0 0 0 0 0 0 0 0 0 0 0 0 0 0 0 0 0 0 0 -0 0 0 0 0 0 0 0 0 -0 0 0 -0 0
0 0 0 0 0 0 0 0 0 0 0 0 0 0 0 0 0 -0 0 0 0 0 0 0 0 0 0 0 0 0 0 0 0 0 0 0 0 0 0 0 0 0 0 0 0 0 0
Wind_Speed_500mb
49 48 47 46 42 42 43 45 46 44 40 33 25 22 23 21 21 22 23 20 16 14 13 13 12 13 12 17 29 13 8 3 3 8 15 17 18 27 29 36 44 43 45 56 57 59 62
51 51 51 50 47 45 44 45 45 46 44 41 33 20 18 21 20 18 14 13 13 11 11 11 11 10 11 26 9 7 5 7 7 14 17 15 20 17 24 32 33 43 43 45 54 52 54
54 55 51 50 51 51 50 49 48 47 44 42 33 25 16 14 13 15 14 11 9 8 7 7 9 11 20 38 8 11 12 15 13 14 16 16 17 21 23 26 28 36 36 37 44 39 44
53 54 54 52 51 53 53 54 54 50 45 38 32 27 17 12 8 8 7 11 10 7 5 7 8 9 20 9 26 20 17 16 18 18 18 21 19 27 31 33 39 32 31 34 38 47 56
54 55 55 53 52 52 52 54 56 56 50 40 29 25 20 11 3 6 3 8 5 2 4 8 8 10 27 14 22 23 20 21 18 18 20 21 22 29 32 28 27 28 32 42 44 44 39
52 56 58 60 53 55 54 55 58 60 51 40 30 21 15 9 3 7 4 6 8 7 9 11 17 17 29 24 15 21 19 19 18 22 25 25 28 23 25 23 25 35 39 30 34 27 19
52 53 56 60 61 57 55 56 57 61 57 42 31 20 9 4 2 8 11 14 8 9 26 29 5 24 9 9 9 17 20 21 20 24 24 32 24 25 32 32 38 37 35 35 40 38 30
48 52 55 57 60 59 58 56 58 58 54 46 34 20 9 3 1 3 8 9 13 17 23 40 45 35 29 11 18 25 24 24 26 25 28 30 28 29 32 35 34 28 34 38 39 39 37
45 49 52 55 57 59 59 58 57 57 53 43 35 21 7 2 2 4 10 14 17 22 19 36 33 30 28 26 30 26 29 32 29 32 31 31 32 35 22 28 33 29 35 37 40 38 43
45 47 49 53 56 59 61 60 58 55 52 41 31 19 4 3 8 13 13 14 19 16 11 22 19 22 27 25 33 33 23 28 30 37 35 33 35 25 30 24 35 33 36 35 35 33 31
44 47 48 50 54 56 59 61 60 56 50 43 27 16 3 7 15 18 17 23 19 10 11 16 24 16 17 31 6 22 24 26 31 34 33 38 35 33 34 29 35 35 31 34 40 35 37
44 45 48 50 52 55 57 59 61 60 53 44 25 12 7 8 20 12 23 21 10 11 16 15 13 15 21 32 32 28 22 28 32 34 36 44 54 46 47 36 35 33 29 33 41 29 31
41 45 46 50 52 54 56 58 61 62 61 47 34 23 17 18 16 23 23 16 13 14 4 7 7 13 22 26 30 30 31 34 30 34 37 44 45 48 45 49 46 34 35 25 30 27 33
43 41 46 48 51 53 56 58 61 63 66 59 41 32 27 25 19 21 16 16 18 24 30 12 8 23 31 33 34 35 34 32 30 36 35 38 39 37 36 26 36 36 35 19 27 30 34
40 46 43 49 50 54 54 57 61 63 65 67 45 16 15 17 11 12 17 16 18 29 26 21 29 34 37 32 34 14 26 32 32 31 34 37 48 43 39 24 27 32 33 36 25 19 23
39 46 39 46 50 55 54 56 59 64 64 64 42 14 22 18 13 8 15 24 40 41 14 22 33 27 34 32 33 24 25 16 23 24 23 33 40 34 41 38 19 37 32 31 14 12 23
40 39 46 37 48 52 54 58 57 63 64 57 27 15 13 11 10 17 17 28 33 33 30 19 30 33 37 37 39 39 39 39 35 39 27 30 34 37 34 35 42 24 25 14 29 28 32
39 40 43 38 42 49 53 52 55 66 67 58 17 12 7 3 16 24 24 21 23 35 35 27 33 37 37 36 37 37 38 38 40 44 26 32 24 30 34 42 48 38 28 37 12 12 23
43 40 40 38 36 44 50 50 48 55 66 67 27 37 21 8 10 17 24 27 38 30 22 27 33 36 32 36 37 36 33 40 49 36 22 16 14 24 33 38 10 8 33 27 19 8 19
44 40 42 38 38 39 48 47 44 45 53 54 18 10 14 22 27 16 25 28 30 46 33 20 26 27 32 35 35 33 39 35 41 44 21 6 20 33 28 41 42 43 31 24 20 7 21
40 40 47 43 41 39 48 52 61 49 38 41 16 15 11 14 24 33 32 33 35 35 30 30 31 35 35 35 36 35 37 39 38 45 2 5 25 33 40 41 44 48 52 48 43 44 33
55 48 47 48 43 50 40 61 67 54 31 29 31 21 28 40 37 29 25 29 39 27 32 36 35 32 32 34 33 40 40 34 34 32 33 28 32 35 44 39 45 47 47 49 49 47 46
54 46 40 41 49 52 44 48 65 51 25 22 27 27 24 22 27 24 22 28 40 39 31 30 40 37 31 34 46 48 47 46 38 33 29 27 25 27 33 36 38 38 40 33 40 42 35
54 52 47 39 46 53 55 63 66 45 27 32 24 29 27 23 23 26 39 43 37 35 40 46 41 31 29 31 42 48 53 50 44 34 30 25 26 21 25 23 24 10 26 34 16 34 34
54 51 48 44 50 58 64 62 60 41 31 30 25 14 21 19 27 35 32 36 46 45 33 43 35 19 28 31 19 18 21 23 12 22 16 20 17 8 7 14 34 46 20 22 19 42 25
51 57 58 57 57 58 59 58 45 32 34 36 25 15 9 16 16 35 38 34 24 27 26 27 12 9 16 16 20 23 14 14 10 9 7 6 13 9 10 10 11 15 26 10 17 28 33
44 48 55 59 57 53 53 44 35 28 36 36 30 24 18 16 36 21 23 25 31 26 17 32 13 20 6 10 17 13 15 16 9 5 9 7 6 8 16 18 16 18 33 37 19 18 57
36 40 42 48 52 53 51 44 32 26 33 39 26 20 25 14 47 51 26 31 33 37 19 25 17 0 12 12 7 7 10 9 14 20 13 10 4 8 9 7 7 28 15 23 23 50 50
38 37 35 36 40 49 54 47 33 22 28 35 31 22 19 25 34 52 58 29 42 41 29 16 20 18 10 7 8 8 8 9 22 11 13 6 2 4 9 12 31 43 42 42 53 54 63
Wind_Direction_500mb
15 11 6 3 3 2 359 355 350 347 343 340 337 329 321 322 322 321 319 313 304 286 272 264 271 291 288 265 264 200 266 281 267 347 278 256 260 246 248 249 251 247 254 256 264 261 263
14 12 9 5 4 5 2 357 353 347 341 336 331 329 323 324 323 325 331 332 322 303 277 248 251 273 282 265 145 228 190 221 290 258 276 270 278 319 309 285 278 271 267 269 263 268 271
14 12 10 9 5 3 360 358 356 350 344 336 328 322 319 320 326 333 339 339 326 314 293 254 260 281 272 242 253 225 208 231 250 264 272 264 273 287 288 289 268 273 269 268 268 260 264
15 15 13 8 8 4 0 358 356 354 350 342 332 323 315 322 336 344 342 339 317 297 277 241 252 273 260 287 241 234 235 248 255 257 263 277 282 277 277 281 285 270 264 265 258 247 244
11 12 13 11 7 5 2 360 358 356 352 344 335 327 316 318 349 6 358 5 3 281 245 228 225 243 266 210 233 232 235 247 246 249 263 267 274 272 275 263 262 243 255 255 256 243 238
8 8 8 9 9 6 3 3 0 358 357 350 341 333 319 310 332 357 342 306 303 263 276 243 243 259 255 253 214 223 234 240 267 265 261 250 256 257 247 244 259 270 263 273 264 255 203
4 7 7 6 6 3 5 3 3 1 358 356 346 335 322 283 308 4 345 311 293 233 222 238 262 239 282 233 219 228 228 234 250 254 265 261 240 250 254 254 255 276 294 298 292 298 310
0 2 3 4 5 4 3 3 2 2 1 356 353 340 320 212 236 18 358 289 351 313 293 253 244 250 252 247 260 225 228 226 232 247 259 241 251 254 263 276 286 294 286 279 279 278 277
354 358 359 0 2 5 3 2 1 0 1 359 350 344 320 186 293 264 341 327 320 317 278 289 219 235 231 226 239 256 208 229 244 264 255 267 278 291 296 283 278 260 264 274 280 291 290
347 352 354 356 358 360 2 2 360 358 357 357 355 345 323 235 311 307 269 321 325 314 277 225 195 237 214 211 246 237 246 233 243 247 264 275 290 283 299 272 272 272 274 282 291 289 283
340 344 348 351 353 355 357 -0 1 356 354 351 354 347 283 276 320 318 319 315 306 290 285 153 159 126 199 209 355 208 223 234 252 272 279 275 271 273 253 252 278 270 290 301 296 288 286
333 337 340 344 348 350 352 354 357 356 351 346 331 324 284 310 301 318 323 311 303 243 258 161 158 216 223 222 249 261 202 229 263 281 281 281 278 278 275 268 247 265 289 283 277 270 258
327 330 335 338 342 345 347 349 350 354 349 344 327 288 264 276 280 317 312 286 251 244 118 238 209 230 248 259 260 230 232 240 248 260 261 266 260 245 247 257 253 239 259 261 261 245 251
321 325 330 335 337 339 342 344 346 348 348 343 328 296 259 258 275 305 304 259 255 284 310 41 335 292 272 281 275 270 269 263 259 265 265 274 273 274 289 315 249 278 247 254 264 277 288
318 319 326 330 333 335 338 341 345 345 348 342 341 333 283 251 249 286 277 243 248 280 340 337 325 291 277 270 251 269 282 289 288 278 282 299 294 303 293 308 297 285 272 285 306 314 290
310 312 321 327 330 331 335 338 344 342 347 345 343 303 264 198 221 262 258 256 287 292 333 310 295 300 291 296 307 297 267 269 297 297 274 282 293 291 297 302 239 263 263 251 233 253 263
304 310 313 325 326 328 333 335 346 340 345 348 343 286 186 186 255 245 246 266 293 334 340 312 298 297 301 305 303 298 294 295 294 292 292 280 279 287 301 278 275 302 307 329 316 277 263
301 305 309 320 326 327 328 335 347 344 342 350 331 284 190 193 255 247 245 288 338 311 300 286 285 283 278 287 286 287 292 298 305 291 282 293 315 290 270 274 291 309 244 265 246 307 276
300 300 302 308 311 318 325 333 348 349 345 344 317 289 239 212 259 300 319 316 321 309 318 316 304 299 302 296 290 288 286 299 304 298 317 352 241 290 291 287 289 41 305 311 294 331 265
297 295 298 298 300 296 320 326 342 344 342 336 300 302 213 221 256 264 295 312 305 313 300 284 294 303 300 284 278 284 288 284 295 294 164 186 264 271 277 278 295 295 257 227 220 196 256
294 308 300 297 294 300 303 308 323 319 332 328 270 294 343 300 322 328 312 298 300 297 322 322 312 300 291 297 300 296 300 307 303 301 216 248 271 273 282 288 286 289 282 277 229 233 247
286 283 291 291 293 295 305 308 311 316 305 303 299 335 319 298 294 298 292 292 297 309 334 311 300 309 308 292 298 304 304 300 296 309 309 307 292 284 281 293 292 287 292 289 277 275 276
284 277 276 283 291 295 301 307 312 313 298 310 319 317 284 283 297 294 295 304 312 317 309 302 309 310 289 296 304 301 290 283 280 280 279 280 289 293 286 294 297 292 280 274 291 293 282
285 282 280 280 285 287 293 304 309 303 286 303 301 322 291 284 296 302 317 304 301 319 309 303 297 287 310 327 310 290 272 262 255 252 245 257 262 273 284 299 284 281 330 298 318 276 293
276 277 272 267 271 279 286 297 301 296 279 276 296 309 296 292 297 300 327 323 315 299 299 315 302 346 335 312 296 278 287 228 287 245 222 223 257 274 254 250 279 290 354 1 7 314 37
276 275 274 270 274 282 289 298 297 286 282 266 293 252 261 290 255 322 318 312 312 325 308 312 12 11 312 285 257 261 283 324 169 166 189 238 231 207 255 260 280 356 3 344 241 276 6
293 283 275 276 280 284 291 302 292 281 275 272 274 262 247 265 277 286 311 307 305 307 305 300 2 320 248 272 292 272 302 311 336 282 191 221 144 207 242 253 265 26 344 334 296 326 326
300 293 286 278 277 282 289 296 288 281 268 284 283 261 246 260 278 289 300 289 283 279 279 338 313 19 281 286 293 338 309 335 292 337 307 298 239 214 231 253 285 11 344 349 314 312 324
295 299 298 289 279 278 282 289 289 276 267 274 283 296 256 251 261 278 289 290 260 251 286 280 302 285 346 322 355 328 319 308 317 298 337 353 74 248 255 301 326 356 340 334 344 331 335
Wind_Speed_850mb
49 48 47 46 42 42 43 45 46 44 40 33 25 22 23 21 21 22 23 20 16 14 13 13 12 13 12 17 29 13 8 3 3 8 15 17 18 27 29 36 44 43 45 56 57 59 62
51 51 51 50 47 45 44 45 45 46 44 41 33 20 18 21 20 18 14 13 13 11 11 11 11 10 11 26 9 7 5 7 7 14 17 15 20 17 24 32 33 43 43 45 54 52 54
54 55 51 50 51 51 50 49 48 47 44 42 33 25 16 14 13 15 14 11 9 8 7 7 9 11 20 38 8 11 12 15 13 14 16 16 17 21 23 26 28 36 36 37 44 39 44
53 54 54 52 51 53 53 54 54 50 45 38 32 27 17 12 8 8 7 11 10 7 5 7 8 9 20 9 26 20 17 16 18 18 18 21 19 27 31 33 39 32 31 34 38 47 56
54 55 55 53 52 52 52 54 56 56 50 40 29 25 20 11 3 6 3 8 5 2 4 8 8 10 27 14 22 23 20 21 18 18 20 21 22 29 32 28 27 28 32 42 44 44 39
52 56 58 60 53 55 54 55 58 60 51 40 30 21 15 9 3 7 4 6 8 7 9 11 17 17 29 24 15 21 19 19 18 22 25 25 28 23 25 23 25 35 39 30 34 27 19
52 53 56 60 61 57 55 56 57 61 57 42 31 20 9 4 2 8 11 14 8 9 26 29 5 24 9 9 9 17 20 21 20 24 24 32 24 25 32 32 38 37 35 35 40 38 30
48 52 55 57 60 59 58 56 58 58 54 46 34 20 9 3 1 3 8 9 13 17 23 40 45 35 29 11 18 25 24 24 26 25 28 30 28 29 32 35 34 28 34 38 39 39 37
45 49 52 55 57 59 59 58 57 57 53 43 35 21 7 2 2 4 10 14 17 22 19 36 33 30 28 26 30 26 29 32 29 32 31 31 32 35 22 28 33 29 35 37 40 38 43
45 47 49 53 56 59 61 60 58 55 52 41 31 19 4 3 8 13 13 14 19 16 11 22 19 22 27 25 33 33 23 28 30 37 35 33 35 25 30 24 35 33 36 35 35 33 31
44 47 48 50 54 56 59 61 60 56 50 43 27 16 3 7 15 18 17 23 19 10 11 16 24 16 17 31 6 22 24 26 31 34 33 38 35 33 34 29 35 35 31 34 40 35 37
44 45 48 50 52 55 57 59 61 60 53 44 25 12 7 8 20 12 23 21 10 11 16 15 13 15 21 32 32 28 22 28 32 34 36 44 54 46 47 36 35 33 29 33 41 29 31
41 45 46 50 52 54 56 58 61 62 61 47 34 23 17 18 16 23 23 16 13 14 4 7 7 13 22 26 30 30 31 34 30 34 37 44 45 48 45 49 46 34 35 25 30 27 33
43 41 46 48 51 53 56 58 61 63 66 59 41 32 27 25 19 21 16 16 18 24 30 12 8 23 31 33 34 35 34 32 30 36 35 38 39 37 36 26 36 36 35 19 27 30 34
40 46 43 49 50 54 54 57 61 63 65 67 45 16 15 17 11 12 17 16 18 29 26 21 29 34 37 32 34 14 26 32 32 31 34 37 48 43 39 24 27 32 33 36 25 19 23
39 46 39 46 50 55 54 56 59 64 64 64 42 14 22 18 13 8 15 24 40 41 14 22 33 27 34 32 33 24 25 16 23 24 23 33 40 34 41 38 19 37 32 31 14 12 23
40 39 46 37 48 52 54 58 57 63 64 57 27 15 13 11 10 17 17 28 33 33 30 19 30 33 37 37 39 39 39 39 35 39 27 30 34 37 34 35 42 24 25 14 29 28 32
39 40 43 38 42 49 53 52 55 66 67 58 17 12 7 3 16 24 24 21 23 35 35 27 33 37 37 36 37 37 38 38 40 44 26 32 24 30 34 42 48 38 28 37 12 12 23
43 40 40 38 36 44 50 50 48 55 66 67 27 37 21 8 10 17 24 27 38 30 22 27 33 36 32 36 37 36 33 40 49 36 22 16 14 24 33 38 10 8 33 27 19 8 19
44 40 42 38 38 39 48 47 44 45 53 54 18 10 14 22 27 16 25 28 30 46 33 20 26 27 32 35 35 33 39 35 41 44 21 6 20 33 28 41 42 43 31 24 20 7 21
40 40 47 43 41 39 48 52 61 49 38 41 16 15 11 14 24 33 32 33 35 35 30 30 31 35 35 35 36 35 37 39 38 45 2 5 25 33 40 41 44 48 52 48 43 44 33
55 48 47 48 43 50 40 61 67 54 31 29 31 21 28 40 37 29 25 29 39 27 32 36 35 32 32 34 33 40 40 34 34 32 33 28 32 35 44 39 45 47 47 49 49 47 46
54 46 40 41 49 52 44 48 65 51 25 22 27 27 24 22 27 24 22 28 40 39 31 30 40 37 31 34 46 48 47 46 38 33 29 27 25 27 33 36 38 38 40 33 40 42 35
54 52 47 39 46 53 55 63 66 45 27 32 24 29 27 23 23 26 39 43 37 35 40 46 41 31 29 31 42 48 53 50 44 34 30 25 26 21 25 23 24 10 26 34 16 34 34
54 51 48 44 50 58 64 62 60 41 31 30 25 14 21 19 27 35 32 36 46 45 33 43 35 19 28 31 19 18 21 23 12 22 16 20 17 8 7 14 34 46 20 22 19 42 25
51 57 58 57 57 58 59 58 45 32 34 36 25 15 9 16 16 35 38 34 24 27 26 27 12 9 16 16 20 23 14 14 10 9 7 6 13 9 10 10 11 15 26 10 17 28 33
44 48 55 59 57 53 53 44 35 28 36 36 30 24 18 16 36 21 23 25 31 26 17 32 13 20 6 10 17 13 15 16 9 5 9 7 6 8 16 18 16 18 33 37 19 18 57
36 40 42 48 52 53 51 44 32 26 33 39 26 20 25 14 47 51 26 31 33 37 19 25 17 0 12 12 7 7 10 9 14 20 13 10 4 8 9 7 7 28 15 23 23 50 50
38 37 35 36 40 49 54 47 33 22 28 35 31 22 19 25 34 52 58 29 42 41 29 16 20 18 10 7 8 8 8 9 22 11 13 6 2 4 9 12 31 43 42 42 53 54 63
Wind_Direction_850mb
15 11 6 3 3 2 359 355 350 347 343 340 337 329 321 322 322 321 319 313 304 286 272 264 271 291 288 265 264 200 266 281 267 347 278 256 260 246 248 249 251 247 254 256 264 261 263
14 12 9 5 4 5 2 357 353 347 341 336 331 329 323 324 323 325 331 332 322 303 277 248 251 273 282 265 145 228 190 221 290 258 276 270 278 319 309 285 278 271 267 269 263 268 271
14 12 10 9 5 3 360 358 356 350 344 336 328 322 319 320 326 333 339 339 326 314 293 254 260 281 272 242 253 225 208 231 250 264 272 264 273 287 288 289 268 273 269 268 268 260 264
15 15 13 8 8 4 0 358 356 354 350 342 332 323 315 322 336 344 342 339 317 297 277 241 252 273 260 287 241 234 235 248 255 257 263 277 282 277 277 281 285 270 264 265 258 247 244
11 12 13 11 7 5 2 360 358 356 352 344 335 327 316 318 349 6 358 5 3 281 245 228 225 243 266 210 233 232 235 247 246 249 263 267 274 272 275 263 262 243 255 255 256 243 238
8 8 8 9 9 6 3 3 0 358 357 350 341 333 319 310 332 357 342 306 303 263 276 243 243 259 255 253 214 223 234 240 267 265 261 250 256 257 247 244 259 270 263 273 264 255 203
4 7 7 6 6 3 5 3 3 1 358 356 346 335 322 283 308 4 345 311 293 233 222 238 262 239 282 233 219 228 228 234 250 254 265 261 240 250 254 254 255 276 294 298 292 298 310
0 2 3 4 5 4 3 3 2 2 1 356 353 340 320 212 236 18 358 289 351 313 293 253 244 250 252 247 260 225 228 226 232 247 259 241 251 254 263 276 286 294 286 279 279 278 277
354 358 359 0 2 5 3 2 1 0 1 359 350 344 320 186 293 264 341 327 320 317 278 289 219 235 231 226 239 256 208 229 244 264 255 267 278 291 296 283 278 260 264 274 280 291 290
347 352 354 356 358 360 2 2 360 358 357 357 355 345 323 235 311 307 269 321 325 314 277 225 195 237 214 211 246 237 246 233 243 247 264 275 290 283 299 272 272 272 274 282 291 289 283
340 344 348 351 353 355 357 -0 1 356 354 351 354 347 283 276 320 318 319 315 306 290 285 153 159 126 199 209 355 208 223 234 252 272 279 275 271 273 253 252 278 270 290 301 296 288 286
333 337 340 344 348 350 352 354 357 356 351 346 331 324 284 310 301 318 323 311 303 243 258 161 158 216 223 222 249 261 202 229 263 281 281 281 278 278 275 268 247 265 289 283 277 270 258
327 330 335 338 342 345 347 349 350 354 349 344 327 288 264 276 280 317 312 286 251 244 118 238 209 230 248 259 260 230 232 240 248 260 261 266 260 245 247 257 253 239 259 261 261 245 251
321 325 330 335 337 339 342 344 346 348 348 343 328 296 259 258 275 305 304 259 255 284 310 41 335 292 272 281 275 270 269 263 259 265 265 274 273 274 289 315 249 278 247 254 264 277 288
318 319 326 330 333 335 338 341 345 345 348 342 341 333 283 251 249 286 277 243 248 280 340 337 325 291 277 270 251 269 282 289 288 278 282 299 294 303 293 308 297 285 272 285 306 314 290
310 312 321 327 330 331 335 338 344 342 347 345 343 303 264 198 221 262 258 256 287 292 333 310 295 300 291 296 307 297 267 269 297 297 274 282 293 291 297 302 239 263 263 251 233 253 263
304 310 313 325 326 328 333 335 346 340 345 348 343 286 186 186 255 245 246 266 293 334 340 312 298 297 301 305 303 298 294 295 294 292 292 280 279 287 301 278 275 302 307 329 316 277 263
301 305 309 320 326 327 328 335 347 344 342 350 331 284 190 193 255 247 245 288 338 311 300 286 285 283 278 287 286 287 292 298 305 291 282 293 315 290 270 274 291 309 244 265 246 307 276
300 300 302 308 311 318 325 333 348 349 345 344 317 289 239 212 259 300 319 316 321 309 318 316 304 299 302 296 290 288 286 299 304 298 317 352 241 290 291 287 289 41 305 311 294 331 265
297 295 298 298 300 296 320 326 342 344 342 336 300 302 213 221 256 264 295 312 305 313 300 284 294 303 300 284 278 284 288 284 295 294 164 186 264 271 277 278 295 295 257 227 220 196 256
294 308 300 297 294 300 303 308 323 319 332 328 270 294 343 300 322 328 312 298 300 297 322 322 312 300 291 297 300 296 300 307 303 301 216 248 271 273 282 288 286 289 282 277 229 233 247
286 283 291 291 293 295 305 308 311 316 305 303 299 335 319 298 294 298 292 292 297 309 334 311 300 309 308 292 298 304 304 300 296 309 309 307 292 284 281 293 292 287 292 289 277 275 276
284 277 276 283 291 295 301 307 312 313 298 310 319 317 284 283 297 294 295 304 312 317 309 302 309 310 289 296 304 301 290 283 280 280 279 280 289 293 286 294 297 292 280 274 291 293 282
285 282 280 280 285 287 293 304 309 303 286 303 301 322 291 284 296 302 317 304 301 319 309 303 297 287 310 327 310 290 272 262 255 252 245 257 262 273 284 299 284 281 330 298 318 276 293
276 277 272 267 271 279 286 297 301 296 279 276 296 309 296 292 297 300 327 323 315 299 299 315 302 346 335 312 296 278 287 228 287 245 222 223 257 274 254 250 279 290 354 1 7 314 37
276 275 274 270 274 282 289 298 297 286 282 266 293 252 261 290 255 322 318 312 312 325 308 312 12 11 312 285 257 261 283 324 169 166 189 238 231 207 255 260 280 356 3 344 241 276 6
293 283 275 276 280 284 291 302 292 281 275 272 274 262 247 265 277 286 311 307 305 307 305 300 2 320 248 272 292 272 302 311 336 282 191 221 144 207 242 253 265 26 344 334 296 326 326
300 293 286 278 277 282 289 296 288 281 268 284 283 261 246 260 278 289 300 289 283 279 279 338 313 19 281 286 293 338 309 335 292 337 307 298 239 214 231 253 285 11 344 349 314 312 324
295 299 298 289 279 278 282 289 289 276 267 274 283 296 256 251 261 278 289 290 260 251 286 280 302 285 346 322 355 328 319 308 317 298 337 353 74 248 255 301 326 356 340 334 344 331 335